Monroe, LA

6:07 AM CDT on June 29, 2017 (GMT -0500)
Monroe Regional

Weather History for KMLU - June, 2015

Change the Weather History Date:

Tuesday, June 16, 2015

  Actual Average Record
Temperature  
Mean Temperature 83 °F 81 °F  
Max Temperature 91 °F 92 °F 102 °F (1936)
Min Temperature 74 °F 70 °F 55 °F (1933)
Degree Days  
Heating Degree Days 0 0  
Month to date heating degree days 0 0  
Since 1 June heating degree days 0 0  
Since 1 July heating degree days 2515 2230  
Cooling Degree Days 18 16  
Month to date cooling degree days 231 231  
Year to date cooling degree days 653 666  
Since 1 June cooling degree days 231 231  
Growing Degree Days 32 (Base 50)    
Moisture  
Dew Point 75 °F    
Average Humidity 80    
Maximum Humidity 100    
Minimum Humidity 59    
Precipitation  
Precipitation 0.17 in 0.16 in 2.88 in (1982)
Month to date precipitation 2.17 2.42  
Year to date precipitation 28.65 26.47  
Snow  
Snow 0.00 in - - ()
Month to date snowfall 0.0  
Since 1 June snowfall 0.0  
Since 1 July snowfall 3.9  
Snow Depth 0.00 in    
Sea Level Pressure  
Sea Level Pressure 30.05 in    
Wind  
Wind Speed 4 mph (SSE)    
Max Wind Speed 9 mph    
Max Gust Speed 33 mph    
Visibility 9 miles    
Events Rain , Thunderstorm    
T = Trace of Precipitation, MM = Missing Value Source: NWS Daily Summary

Daily Weather History Graph

Daily Weather History Graph

Search for Another Location

Airport or City:

Trip Planner

Search our weather history database for the weather conditions in past years. The results will help you decide how hot, cold, wet, or windy it might be!

Date:

Astronomy

Jun. 16, 2015 Rise Set
Actual Time 6:00 AM CDT 8:17 PM CDT
Civil Twilight 5:31 AM CDT 8:45 PM CDT
Nautical Twilight 4:57 AM CDT 9:20 PM CDT
Astronomical Twilight 4:19 AM CDT 9:58 PM CDT
Moon 6:15 AM CDT (6/16) 8:22 PM CDT (6/16)
Length of Visible Light 15h 13m
Length of Day
14h 16m
New Moon, 0% of the Moon is Illuminated
Jun 16
New Moon
Jun 24
First Quarter
Jul 1
Full
Jul 8
Last Quarter
Jul 15
New

Hourly Weather History & Observations

Time (CDT) Temp. Heat Index Dew Point Humidity Pressure Visibility Wind Dir Wind Speed Gust Speed Precip Events Conditions
12:53 AM 75.0 °F - 73.9 °F 96% 30.06 in 10.0 mi Calm Calm - N/A   Clear
1:53 AM 75.0 °F - 73.0 °F 94% 30.06 in 10.0 mi Calm Calm - N/A   Clear
2:53 AM 75.0 °F - 73.0 °F 94% 30.06 in 10.0 mi East 3.5 mph - N/A   Scattered Clouds
3:53 AM 73.4 °F - 73.4 °F 100% 30.06 in 10.0 mi Variable 3.5 mph - N/A   Clear
4:53 AM 73.9 °F - 73.0 °F 97% 30.05 in 10.0 mi Calm Calm - N/A   Scattered Clouds
5:53 AM 73.9 °F - 73.0 °F 97% 30.06 in 10.0 mi East 3.5 mph - N/A   Mostly Cloudy
6:53 AM 75.0 °F - 73.0 °F 94% 30.06 in 10.0 mi East 4.6 mph - N/A   Clear
7:53 AM 78.1 °F - 75.0 °F 90% 30.07 in 10.0 mi ESE 5.8 mph - N/A   Clear
8:53 AM 81.0 °F 86.7 °F 75.0 °F 82% 30.09 in 10.0 mi Variable 5.8 mph - N/A   Clear
9:53 AM 82.4 °F 89.5 °F 75.2 °F 79% 30.09 in 10.0 mi SSE 8.1 mph - N/A   Clear
10:53 AM 84.9 °F 94.1 °F 75.9 °F 74% 30.09 in 10.0 mi SSE 8.1 mph - N/A   Partly Cloudy
11:53 AM 86.0 °F 95.1 °F 75.0 °F 70% 30.09 in 10.0 mi SSE 8.1 mph - N/A   Mostly Cloudy
12:00 PM 86.0 °F 95.1 °F 75.0 °F 70% 30.10 in 10.0 mi South 10.4 mph - N/A   Scattered Clouds
12:53 PM 88.0 °F 98.5 °F 75.9 °F 67% 30.08 in 10.0 mi SSE 9.2 mph 16.1 mph N/A   Partly Cloudy
1:53 PM 89.1 °F 99.1 °F 75.0 °F 63% 30.06 in 10.0 mi SSE 9.2 mph 17.3 mph N/A   Partly Cloudy
2:53 PM 90.0 °F 100.2 °F 75.0 °F 61% 30.03 in 10.0 mi SSE 8.1 mph - N/A   Partly Cloudy
3:53 PM 89.6 °F 99.8 °F 75.2 °F 62% 30.02 in 10.0 mi Variable 5.8 mph - N/A   Mostly Cloudy
4:53 PM 89.1 °F 98.0 °F 73.9 °F 61% 30.01 in 10.0 mi SSE 8.1 mph - N/A   Partly Cloudy
5:53 PM 87.1 °F 96.3 °F 75.0 °F 67% 30.00 in 10.0 mi SE 4.6 mph - N/A   Mostly Cloudy
6:53 PM 82.0 °F 91.0 °F 78.1 °F 88% 30.01 in 10.0 mi SSW 3.5 mph - 0.01 in   Mostly Cloudy
6:59 PM 82.0 °F 91.0 °F 78.1 °F 88% 30.02 in 1.8 mi Calm Calm - 0.10 in Rain Heavy Rain
7:07 PM 81.0 °F 88.6 °F 78.1 °F 91% 30.02 in 6.0 mi Calm Calm - 0.10 in Rain , Thunderstorm Light Thunderstorms and Rain
7:10 PM 81.0 °F 88.6 °F 78.1 °F 91% 30.02 in 6.0 mi SSW 3.5 mph - 0.10 in Rain , Thunderstorm Light Thunderstorms and Rain
7:20 PM 80.1 °F 85.8 °F 77.0 °F 90% 30.03 in 1.0 mi SW 23.0 mph 26.5 mph 0.12 in Rain , Thunderstorm Heavy Thunderstorms and Rain
7:24 PM 77.0 °F - 73.0 °F 88% 30.03 in 6.0 mi WSW 18.4 mph 33.4 mph 0.16 in Rain , Thunderstorm Light Thunderstorms and Rain
7:33 PM 75.9 °F - 71.1 °F 85% 30.03 in 10.0 mi WSW 8.1 mph - 0.16 in Rain Light Rain
7:53 PM 75.0 °F - 73.0 °F 94% 30.04 in 10.0 mi Calm Calm - 0.16 in Thunderstorm Mostly Cloudy
8:11 PM 75.0 °F - 73.9 °F 96% 30.04 in 10.0 mi Calm Calm - N/A   Partly Cloudy
8:53 PM 75.0 °F - 73.9 °F 96% 30.05 in 10.0 mi Calm Calm - N/A   Clear
9:53 PM 75.2 °F - 73.4 °F 94% 30.07 in 10.0 mi Calm Calm - N/A   Partly Cloudy
10:53 PM 75.0 °F - 73.9 °F 96% 30.07 in 10.0 mi Calm Calm - N/A   Partly Cloudy